Total_Precipitation_Accumulation
0.76 0.68 0.83 0.89 0.80 0.88 1.22 1.12 1.03 0.67 0.57 0.60 0.61 0.63 0.60 0.60 0.58 0.57 0.65 0.73 0.79 0.85 0.85 0.84 0.90 0.93 1.01 1.11 1.18 1.25 1.31 1.33 1.30 1.34 1.35 1.36 1.36 1.38 1.36 1.40 1.41 1.45 1.48 1.45
0.72 0.61 0.72 0.77 0.67 0.68 0.73 0.72 0.72 0.57 0.62 0.56 0.55 0.53 0.51 0.53 0.52 0.54 0.60 0.68 0.72 0.76 0.77 0.78 0.85 0.92 0.94 1.01 1.15 1.17 1.24 1.30 1.26 1.21 1.23 1.34 1.43 1.43 1.43 1.41 1.44 1.46 1.52 1.55
0.86 0.59 0.77 0.93 0.81 0.69 0.67 0.66 0.66 0.75 0.72 0.55 0.54 0.52 0.56 0.54 0.52 0.56 0.57 0.61 0.65 0.70 0.74 0.79 0.85 0.88 0.91 0.96 1.08 1.13 1.18 1.25 1.25 1.23 1.25 1.28 1.38 1.50 1.55 1.53 1.52 1.59 1.66 1.70
1.05 0.82 1.09 0.93 0.57 0.49 0.51 0.57 0.59 0.65 0.60 0.55 0.59 0.57 0.51 0.49 0.49 0.51 0.53 0.56 0.59 0.63 0.68 0.71 0.75 0.80 0.87 0.90 0.96 1.02 1.07 1.17 1.20 1.22 1.32 1.39 1.42 1.46 1.54 1.58 1.63 1.73 1.81 1.82
1.13 0.92 0.71 0.50 0.39 0.49 0.53 0.58 0.51 0.49 0.45 0.41 0.43 0.47 0.45 0.40 0.40 0.47 0.52 0.58 0.61 0.63 0.68 0.67 0.67 0.73 0.82 0.88 0.94 0.98 1.03 1.14 1.21 1.22 1.28 1.38 1.51 1.53 1.55 1.59 1.64 1.66 1.68 1.63
1.16 1.02 0.67 0.52 0.32 0.32 0.45 0.64 0.42 0.41 0.42 0.40 0.40 0.48 0.50 0.43 0.40 0.39 0.40 0.49 0.57 0.60 0.64 0.65 0.67 0.73 0.82 0.89 0.98 1.09 1.15 1.23 1.31 1.36 1.39 1.37 1.43 1.50 1.49 1.43 1.38 1.28 1.20 1.16
1.04 1.02 0.63 0.49 0.30 0.25 0.61 0.79 0.43 0.42 0.45 0.43 0.50 0.53 0.44 0.36 0.37 0.40 0.40 0.44 0.53 0.60 0.67 0.70 0.75 0.81 0.92 1.01 1.13 1.23 1.29 1.31 1.37 1.38 1.39 1.36 1.27 1.19 1.15 1.09 1.02 0.99 0.93 0.87
0.81 1.04 0.76 0.40 0.34 0.64 0.82 0.51 0.41 0.39 0.40 0.42 0.41 0.34 0.29 0.27 0.29 0.33 0.38 0.45 0.55 0.63 0.68 0.73 0.80 0.86 0.93 1.04 1.12 1.13 1.19 1.20 1.20 1.10 0.99 0.95 0.97 0.94 0.94 0.95 0.90 0.87 0.88 0.87
0.84 0.90 0.72 0.52 0.58 0.63 0.54 0.47 0.39 0.41 0.39 0.39 0.36 0.31 0.29 0.27 0.27 0.30 0.34 0.41 0.47 0.55 0.57 0.60 0.66 0.75 0.84 0.87 0.86 0.86 0.88 0.90 0.91 0.86 0.78 0.76 0.80 0.85 0.88 0.92 0.92 0.88 0.87 0.88
0.61 0.55 0.45 0.41 0.36 0.34 0.36 0.43 0.39 0.39 0.41 0.40 0.41 0.37 0.35 0.31 0.31 0.32 0.35 0.39 0.44 0.46 0.49 0.52 0.55 0.64 0.74 0.75 0.73 0.74 0.77 0.79 0.82 0.84 0.80 0.78 0.78 0.82 0.88 0.92 0.95 0.93 0.92 0.90
0.51 0.42 0.38 0.33 0.31 0.34 0.32 0.30 0.29 0.30 0.33 0.39 0.42 0.42 0.41 0.39 0.39 0.40 0.41 0.44 0.48 0.52 0.53 0.56 0.56 0.58 0.63 0.67 0.71 0.76 0.75 0.76 0.79 0.83 0.85 0.83 0.83 0.89 0.94 0.95 1.05 1.14 1.08 1.01
0.63 0.48 0.54 0.46 0.37 0.35 0.35 0.34 0.33 0.33 0.30 0.31 0.38 0.45 0.45 0.44 0.44 0.45 0.46 0.46 0.48 0.52 0.57 0.60 0.59 0.62 0.64 0.69 0.74 0.82 0.83 0.83 0.85 0.89 0.89 0.90 0.91 0.93 1.02 1.04 1.10 1.16 1.14 1.10
0.57 0.43 0.41 0.37 0.33 0.34 0.37 0.38 0.37 0.37 0.37 0.35 0.35 0.39 0.42 0.45 0.46 0.44 0.44 0.46 0.51 0.57 0.61 0.63 0.63 0.66 0.72 0.75 0.78 0.85 0.90 0.94 0.95 0.93 0.90 0.92 0.96 0.97 1.00 1.02 1.07 1.13 1.16 1.13
0.38 0.36 0.37 0.35 0.38 0.35 0.34 0.34 0.33 0.33 0.33 0.34 0.35 0.34 0.36 0.41 0.43 0.45 0.50 0.54 0.57 0.58 0.60 0.60 0.60 0.66 0.75 0.79 0.80 0.83 0.85 0.95 1.00 0.96 0.94 0.96 1.00 1.05 1.03 1.02 1.02 1.04 1.08 1.14
0.34 0.39 0.46 0.40 0.34 0.32 0.31 0.29 0.29 0.31 0.31 0.32 0.33 0.34 0.36 0.40 0.45 0.51 0.53 0.52 0.53 0.53 0.56 0.56 0.57 0.64 0.69 0.75 0.79 0.80 0.82 0.91 0.97 1.00 0.99 1.00 1.02 1.04 1.04 1.04 1.03 1.02 1.00 1.09
0.31 0.27 0.27 0.27 0.29 0.28 0.27 0.28 0.30 0.31 0.30 0.30 0.32 0.35 0.39 0.42 0.45 0.47 0.49 0.49 0.52 0.58 0.62 0.60 0.61 0.64 0.64 0.67 0.71 0.73 0.79 0.92 0.99 0.99 0.97 0.96 0.96 0.98 1.00 1.02 1.01 0.98 0.98 1.05
0.32 0.30 0.28 0.28 0.28 0.29 0.31 0.34 0.36 0.36 0.33 0.34 0.36 0.38 0.38 0.37 0.38 0.42 0.47 0.49 0.54 0.60 0.63 0.62 0.64 0.60 0.60 0.63 0.66 0.69 0.75 0.84 0.92 0.90 0.90 0.92 0.93 0.96 0.97 0.98 0.98 0.96 1.01 1.12
0.37 0.39 0.38 0.39 0.37 0.36 0.34 0.34 0.34 0.34 0.35 0.35 0.35 0.35 0.37 0.39 0.42 0.45 0.48 0.47 0.44 0.45 0.52 0.59 0.62 0.61 0.60 0.63 0.67 0.69 0.75 0.80 0.83 0.85 0.86 0.88 0.92 0.93 0.94 0.95 0.93 0.94 0.99 1.07
0.33 0.34 0.34 0.34 0.36 0.37 0.38 0.39 0.40 0.39 0.37 0.36 0.36 0.38 0.40 0.42 0.44 0.45 0.43 0.40 0.40 0.45 0.54 0.57 0.60 0.56 0.57 0.63 0.70 0.72 0.74 0.77 0.78 0.80 0.81 0.84 0.85 0.82 0.85 0.88 0.89 0.89 0.92 0.95
0.31 0.33 0.32 0.33 0.34 0.37 0.39 0.38 0.38 0.37 0.37 0.37 0.37 0.35 0.36 0.39 0.43 0.43 0.39 0.41 0.50 0.60 0.60 0.58 0.53 0.52 0.54 0.60 0.69 0.70 0.70 0.72 0.76 0.77 0.77 0.77 0.78 0.78 0.78 0.80 0.81 0.82 0.85 0.89
0.29 0.30 0.31 0.32 0.33 0.35 0.37 0.37 0.36 0.38 0.38 0.36 0.37 0.39 0.40 0.39 0.39 0.38 0.36 0.40 0.47 0.50 0.49 0.48 0.48 0.53 0.57 0.63 0.65 0.64 0.65 0.68 0.71 0.75 0.77 0.78 0.78 0.76 0.76 0.76 0.77 0.78 0.81 0.85
0.31 0.31 0.31 0.29 0.29 0.30 0.32 0.32 0.33 0.34 0.34 0.34 0.34 0.35 0.35 0.35 0.33 0.33 0.34 0.42 0.48 0.48 0.44 0.44 0.51 0.61 0.66 0.67 0.61 0.58 0.60 0.64 0.68 0.71 0.75 0.77 0.78 0.77 0.75 0.75 0.75 0.74 0.75 0.77
0.33 0.32 0.33 0.33 0.33 0.32 0.29 0.30 0.32 0.33 0.33 0.33 0.34 0.34 0.35 0.34 0.33 0.34 0.38 0.38 0.40 0.41 0.41 0.47 0.55 0.61 0.64 0.60 0.55 0.54 0.56 0.59 0.63 0.68 0.72 0.75 0.77 0.78 0.77 0.74 0.73 0.71 0.71 0.71
0.30 0.30 0.31 0.29 0.26 0.23 0.25 0.27 0.29 0.31 0.31 0.31 0.32 0.32 0.32 0.31 0.28 0.29 0.35 0.36 0.36 0.37 0.38 0.42 0.46 0.48 0.49 0.47 0.45 0.47 0.50 0.52 0.57 0.60 0.62 0.64 0.66 0.69 0.70 0.69 0.68 0.65 0.65 0.65
0.25 0.25 0.25 0.24 0.24 0.23 0.23 0.22 0.22 0.23 0.24 0.23 0.23 0.23 0.24 0.27 0.31 0.28 0.27 0.27 0.28 0.31 0.32 0.33 0.34 0.35 0.35 0.36 0.39 0.42 0.46 0.49 0.54 0.57 0.56 0.56 0.57 0.59 0.61 0.61 0.62 0.62 0.60 0.60
0.19 0.19 0.19 0.20 0.21 0.21 0.20 0.20 0.21 0.20 0.20 0.19 0.18 0.19 0.19 0.19 0.20 0.21 0.22 0.22 0.24 0.26 0.26 0.26 0.26 0.27 0.29 0.31 0.34 0.37 0.40 0.41 0.44 0.46 0.47 0.48 0.48 0.50 0.51 0.52 0.53 0.56 0.56 0.56
0.15 0.15 0.15 0.14 0.14 0.15 0.16 0.18 0.20 0.20 0.20 0.23 0.24 0.21 0.19 0.18 0.18 0.18 0.19 0.21 0.22 0.23 0.23 0.24 0.26 0.28 0.29 0.31 0.32 0.33 0.35 0.37 0.39 0.42 0.44 0.46 0.47 0.48 0.48 0.48 0.49 0.50 0.50 0.50